Location: Azul
(36.7830°S, 59.8500°W)
Time: 20:49:05
(UTC-03:00)

RS-44 - Pass Details

Date: 24 September 2024
Orbit: 1174 x 1511 km, 82.5° (Epoch: 11 October)

Event Time Altitude Azimuth Distance (km) Brightness Sun altitude
Rises 00:37:34 0° 169° (SSE) 4,484 ? -52.4°
Reaches altitude 10° 00:42:49 10° 141° (SE) 3,574 ? -52.5°
Enters shadow 00:45:07 12° 125° (SE) 3,409 ? -52.6°
